Tracking 19407 objects as of 14-Dec-2018
HD Live streaming from Space Station
objects crossing your sky now

BEIDOU 3M18

Track BEIDOU 3M18 now!
BEIDOU 3M18 is classified as:


NORAD ID: 43707
Int'l Code: 2018-093B
Perigee: 21,537.8 km
Apogee: 21,738.1 km
Inclination: 55.0 °
Period: 777.5 minutes
Semi major axis: 28008 km
RCS: Unknown
Launch date: November 18, 2018
Source: People's Republic of China (PRC)
Launch site: Xichang Space Center, China (XSC)
aabbcc
Your satellite tracking list
Your tracking list is empty




NASA's NSSDC Master Catalog

Two Line Element Set (TLE):
1 43707U 18093B   18347.71240473 -.00000036  00000-0  00000+0 0  9992
2 43707  54.9674 275.8902 0035753 190.5914 358.3341  1.85207068   456
Source of the keplerian elements: AFSPC